TimeHST,TemperatureF,Dew PointF,Humidity,Sea Level PressureIn,VisibilityMPH,Wind Direction,Wind SpeedMPH,Gust SpeedMPH,PrecipitationIn,Events,Conditions,WindDirDegrees,DateUTC
12:54 AM,71.1,66.0,84,29.97,10.0,ESE,3.5,-,N/A,,Clear,110,2013-10-15 10:54:00
1:54 AM,70.0,64.9,84,29.96,10.0,SE,8.1,-,N/A,,Clear,130,2013-10-15 11:54:00
2:54 AM,69.1,64.0,84,29.96,10.0,South,4.6,-,N/A,,Clear,170,2013-10-15 12:54:00
3:54 AM,68.0,63.0,84,29.94,10.0,SE,6.9,-,N/A,,Clear,130,2013-10-15 13:54:00
4:54 AM,68.0,63.0,84,29.95,10.0,SE,5.8,-,N/A,,Clear,130,2013-10-15 14:54:00
5:54 AM,66.9,63.0,87,29.95,10.0,SSE,4.6,-,N/A,,Clear,150,2013-10-15 15:54:00
6:54 AM,72.0,64.0,76,29.97,10.0,East,5.8,-,N/A,,Partly Cloudy,100,2013-10-15 16:54:00
7:54 AM,75.0,64.9,71,29.99,10.0,Calm,Calm,-,N/A,,Partly Cloudy,0,2013-10-15 17:54:00
8:54 AM,82.0,64.9,56,30.00,10.0,Calm,Calm,-,N/A,,Partly Cloudy,0,2013-10-15 18:54:00
9:54 AM,84.0,69.1,61,30.00,10.0,NE,18.4,-,N/A,,Scattered Clouds,40,2013-10-15 19:54:00
10:03 AM,82.4,69.8,66,29.98,10.0,NNE,18.4,-,N/A,,Partly Cloudy,30,2013-10-15 20:03:00
10:54 AM,84.9,69.1,59,29.98,10.0,NNE,23.0,-,N/A,,Scattered Clouds,30,2013-10-15 20:54:00
11:54 AM,86.0,69.1,57,29.96,10.0,NE,21.9,-,N/A,,Scattered Clouds,50,2013-10-15 21:54:00
12:54 PM,82.9,70.0,65,29.94,10.0,NE,23.0,-,N/A,,Scattered Clouds,40,2013-10-15 22:54:00
1:54 PM,86.0,69.1,57,29.92,10.0,NE,19.6,-,N/A,,Scattered Clouds,40,2013-10-15 23:54:00
2:54 PM,84.9,69.1,59,29.91,10.0,NE,19.6,25.3,N/A,,Scattered Clouds,40,2013-10-16 00:54:00
3:54 PM,82.9,68.0,60,29.92,10.0,ENE,11.5,23.0,N/A,,Scattered Clouds,60,2013-10-16 01:54:00
4:54 PM,80.1,68.0,67,29.94,10.0,ENE,13.8,18.4,N/A,,Scattered Clouds,60,2013-10-16 02:54:00
5:54 PM,79.0,66.9,66,29.95,10.0,NE,10.4,-,N/A,,Scattered Clouds,50,2013-10-16 03:54:00
6:54 PM,77.0,66.0,69,29.97,10.0,NE,9.2,-,N/A,,Partly Cloudy,50,2013-10-16 04:54:00
7:54 PM,75.9,64.0,67,30.00,10.0,NE,11.5,-,N/A,,Partly Cloudy,40,2013-10-16 05:54:00
8:54 PM,75.0,63.0,66,30.01,10.0,NE,9.2,-,N/A,,Partly Cloudy,40,2013-10-16 06:54:00
9:54 PM,73.9,63.0,68,30.00,10.0,East,3.5,-,N/A,,Clear,80,2013-10-16 07:54:00
10:54 PM,69.1,64.0,84,30.00,10.0,SSE,5.8,-,N/A,,Clear,150,2013-10-16 08:54:00
11:54 PM,70.0,64.0,81,29.99,10.0,SE,5.8,-,N/A,,Clear,130,2013-10-16 09:54:00